Location: NJAA Observatory
(40.6819°N, 74.8979°W)
Time: 09:52:53
(UTC-04:00)

Cosmos 2237 Rocket - Visible Passes

Search period start: 01 August 2015 00:00
Search period end: 11 August 2015 00:00
Orbit: 837 x 848 km, 71.0° (Epoch: 31 July)

Date Brightness Start Highest point End Pass type
(mag) Time Alt. Az. Time Alt. Az. Time Alt. Az.
01 Aug 5.0 21:08:08 10° WNW 21:10:26 12° W 21:12:23 10° WSW visible
02 Aug 5.0 20:53:03 10° WNW 20:55:40 13° W 20:57:55 10° WSW visible
03 Aug 5.0 20:38:01 10° WNW 20:40:53 14° W 20:43:26 10° SW visible
